STARLINK-1797, 46698

Orbit data source: Space-Track

STARLINK-1797, 46698 is a payload satellite owned by SpaceX/Seattle (US) in LEO that was launched on Sun, 18 Oct 2020 UTC via an FALCON 9 launch vehicle from the Air Force Eastern Test Range (AFETR). Payload-class satellites include a variety of spacecraft equipped with specific instruments for various scientific and technological missions. These include communications satellites like Starlink; space stations such as the ISS; scientific satellites like the Hubble; Earth observation satellites from companies like Planet Labs, Umbra, and HawkEye 360; GPS; miniature CubeSats for education and research; and military/defense satellites.

Loading next visibility...
Identifier
46698, 2020-073AE
Orbit
LEO
Country
Flag of USUS
Related business
Manufacturer
SpaceX/Seattle
Mission
Partially operational Commercial Communications
Bus & Motor
STARLINK, Unknown motor
Mass
260 kg wet, ~248 kg dry
Launch date (UTC)
2020-10-18 (5 years ago)
Launch vehicle
FALCON 9
Launch site
Air Force Eastern Test Range (AFETR)
Object type
Payload
Rocket body
Debris
Shape & HBR
Box + 1 Pan, 10.1 m
Radar Cross Section
13.562 m², Large (>1 m²)

Expand to show TLE details & history
Last TLE update: 14 hours ago

TLE from 14 hours ago
0 STARLINK-1797
1 46698U 20073AE  26107.17641949  .00064510  00000-0  77309-3 0  9997
2 46698  53.0438  21.8441 0002957 133.5181 226.6078 15.60352256303599
Epoch: 2026-04-17T04:14Z
TLE epoch observation values (Epoch: 2026-04-17T04:14:02.643Z)
Latitude
Longitude
113.01972°
Altitude
388.912 km
Speed
7.677 km/s
True Right ascension
01h 27m 22s
True Declination
0° 00' 00"
Sunlit
Object was in daylight at epoch
Visualization orbit readout
Latitude
Unknown
Longitude
Unknown
Altitude
Unknown
Speed
Unknown
Apparent Right ascension
Unknown
Apparent Declination
Unknown
Sunlit
N/A
Visualization observer readout
Local Sidereal Time
00:51:14
Azimuth
Unknown
Elevation
Unknown
Doppler factor
Unknown
Orbital elements
Apogee altitude
388.918 km
Perigee altitude
384.917 km
Semi-major axis
6,765.054 km
Eccentricity
0.0003
Inclination
53.0438°
RAAN
21.8441°
Arg. of periapsis
133.5181°
True anomaly
226.58318°
Mean anomaly
226.6078°
Eccentric anomaly
226.59549°
Mean motion
3.90064 °/min
Orbital period
92.29 mins
BSTAR
0.00077309
Loading maneuver chart data...
Computing Atmospheric mass density...

Documentation

Showing up to 5 results
|